Regional Weather Roundup
Issued by NWS

Home | Current Version | Previous Version | Text Only | Print | Product List | Glossary Off
Versions: 1 2 3 4 5 6 7 8 9 10 11 12 13 14 15 16 17 18 19 20 21 22 23 24 25 26 27

000
ASUS45 KPSR 190910
RWRAZ

ARIZONA HOURLY REGIONAL WEATHER ROUNDUP
NATIONAL WEATHER SERVICE PHOENIX AZ
200 AM MST SAT AUG 19 2017

NOTE: FAIR INDICATES FEW OR NO CLOUDS BELOW 12,000 FEET WITH NO
SIGNIFICANT WEATHER AND/OR OBSTRUCTIONS TO VISIBILITY.

AZZ001>003-036-191000-
NORTHWEST ARIZONA

CITY           SKY/WX    TMP DP  RH WIND       PRES   REMARKS
BULLHEAD CITY  CLEAR     88  36  15 SE5       29.81F
KINGMAN        CLEAR     72  35  25 S6        30.04F
$$

AZZ004>008-015-016-018-191000-
NORTH CENTRAL ARIZONA

CITY           SKY/WX    TMP DP  RH WIND       PRES   REMARKS
GRAND CANYON   CLEAR     47  34  60 CALM      30.29F
WILLIAMS       CLEAR     52  37  58 S8        30.29F
PRESCOTT       CLEAR     63  38  39 SW5       30.17F
FLAGSTAFF      CLEAR     51  37  58 CALM      30.31F
PAYSON           N/A     64  32  29 NW3       30.18F
PAGE           CLEAR     78  32  18 SW5       30.04F
$$

AZZ009>014-017-191000-
NORTHEAST ARIZONA

CITY           SKY/WX    TMP DP  RH WIND       PRES   REMARKS
WINSLOW        CLEAR     70  33  25 CALM      30.14S
SAINT JOHNS    CLEAR     65  34  31 E3        30.20S
WINDOW ROCK    CLEAR     53  30  41 CALM      30.27S
SHOW LOW       CLEAR     61  36  39 CALM      30.27S
$$

AZZ540-542>544-546-548-191000-
GREATER PHOENIX AREA

CITY           SKY/WX    TMP DP  RH WIND       PRES   REMARKS
PHOENIX        PTCLDY    86  47  25 CALM      29.84F
BUCKEYE        CLEAR     82  39  21 N3        29.85F
LUKE AFB       CLEAR     81  56  41 CALM      29.84S
DEER VALLEY    CLEAR     81  35  19 VRB5      29.87S
SCOTTSDALE     CLEAR     82  42  24 CALM      29.88F
MESA-GATEWAY   CLEAR     75  45  33 E7        29.87F
$$

AZZ539-553-191000-
SOUTHWEST MARICOPA COUNTY AND PINAL COUNTY

CITY           SKY/WX    TMP DP  RH WIND       PRES   REMARKS
CASA GRANDE    CLEAR     87  50  27 W12       29.87F
GILA BEND      FAIR      83  47  28 S6        29.84S
$$

AZZ503-504-507>509-191000-
SOUTHEAST ARIZONA

CITY           SKY/WX    TMP DP  RH WIND       PRES   REMARKS
TUCSON         NOT AVBL
DAVIS-MONTHAN  PTCLDY    75  44  32 S8        29.97S
NOGALES        MOCLDY    68  52  56 S6        30.10S
SIERRA VISTA   MOCLDY    70  42  37 W9        30.14F
DOUGLAS        CLOUDY    74  66  76 SE13      30.11S
SAFFORD        PTCLDY    74  41  30 S5        29.99R
$$

AZZ532-191000-
SOUTHWEST ARIZONA

CITY           SKY/WX    TMP DP  RH WIND       PRES   REMARKS
YUMA           CLEAR     87  51  28 SE6       29.79F
$$

CAZ041-043-047-048-061-525>527-560>570-191000-
SOUTHERN CALIFORNIA

CITY           SKY/WX    TMP DP  RH WIND       PRES   REMARKS
DOWNTOWN L.A.  PTCLDY    67  60  78 W3        29.95S
L.A. AIRPORT   MOCLDY    66  62  87 W6        29.95F
SAN DIEGO      CLOUDY    69  61  75 CALM      29.97F
BURBANK        CLEAR     65  59  81 SE6       29.95S
ONTARIO        CLEAR     67  59  75 W5        29.95F
RIVERSIDE      CLEAR     67  60  78 CALM      29.95F
PALM SPRINGS   CLEAR     83  61  47 SW3       29.82F
EL CENTRO NAS  CLEAR     83  44  25 NW6       29.79S
IMPERIAL       CLEAR     86  50  28 N6        29.76F
BLYTHE         CLEAR     89  51  27 SW7       29.80F
NEEDLES        CLEAR     90  34  13 W3        29.83S
$$

NVZ020-UTZ003-191000-
SOUTHERN NEVADA-UTAH

CITY           SKY/WX    TMP DP  RH WIND       PRES   REMARKS
LAS VEGAS      CLEAR     87  37  17 S7        29.90F
SALT LAKE CITY CLEAR     70  36  28 N6        30.06S
$$

NMZ009-TXZ055-191000-
NEW MEXICO-WEST TEXAS

CITY           SKY/WX    TMP DP  RH WIND       PRES   REMARKS
ALBUQUERQUE    CLOUDY    75  47  36 E3        30.19S
EL PASO        MOCLDY    73  60  63 SE7       30.10F
$$


........................KEY........................
SKY/WX - SKY CONDITION/WEATHER
TMP    - TEMPERATURE IN FAHRENHEIT
DP     - DEW POINT IN FAHRENHEIT
RH     - RELATIVE HUMIDITY IN PERCENT
WIND   - DIRECTION AND SPEED IN MILES PER HOUR (MPH)
VRB    - VARIABLE WIND DIRECTION
PRES   - MEAN SEA LEVEL PRESSURE IN INCHES OF MERCURY
         F - FALLING PRESSURE   R - RISING PRESSURE
         S - STEADY PRESSURE
VSB    - VISIBILITY IN MILES
HX     - HEAT INDEX IN FAHRENHEIT
WCI    - WIND CHILL INDEX IN FAHRENHEIT
TC     - TEMPERATURE IN CELSIUS WHICH IS ALSO KNOWN AS
         TEMPERATURE IN CENTIGRADE
AFB    - AIR FORCE BASE
         LUKE AFB IS LUKE AIR FORCE BASE
         DAVIS-MONTHAN IS DAVIS-MONTHAN AIR FORCE BASE
NAS    - NAVAL AIR STATION
         EL CENTRO NAS IS EL CENTRO NAVAL AIR STATION
N/A    - NOT AVAILABLE





USA.gov is the U.S. government's official web portal to all federal, state and local government web resources and services.